Time,TemperatureF,DewpointF,PressureIn,WindDirection,WindDirectionDegrees,WindSpeedMPH,WindSpeedGustMPH,Humidity,HourlyPrecipIn,Conditions,Clouds,dailyrainin,SolarRadiationWatts/m^2,SoftwareType,DateUTC
2013-02-06 00:00:00,35.8,27.0,29.76,South,179,10.0,11.0,70,0.00,,FEW160,0.00,0.00,VWS V14.01,2013-02-06 07:00:00,
2013-02-06 00:05:00,36.9,27.3,29.75,SSW,194,5.0,13.0,68,0.00,,FEW170,0.00,0.00,VWS V14.01,2013-02-06 07:05:00,
2013-02-06 00:11:00,36.7,27.1,29.75,South,169,5.0,13.0,68,0.00,,FEW170,0.00,0.00,VWS V14.01,2013-02-06 07:11:00,
2013-02-06 00:16:00,36.3,27.1,29.75,SSW,207,6.0,13.0,69,0.00,,FEW170,0.00,0.00,VWS V14.01,2013-02-06 07:16:00,
2013-02-06 00:21:00,36.3,27.1,29.75,SW,216,1.0,13.0,69,0.00,,FEW170,0.00,0.00,VWS V14.01,2013-02-06 07:21:00,
2013-02-06 00:26:00,35.9,26.7,29.75,West,273,0.0,13.0,69,0.00,,FEW170,0.00,0.00,VWS V14.01,2013-02-06 07:26:00,
2013-02-06 00:30:00,30.6,24.6,29.75,WSW,257,2.0,4.0,78,0.00,,OVC090,0.00,0.00,VWS V14.01,2013-02-06 07:30:00,
2013-02-06 00:31:00,36.5,27.3,29.75,South,191,4.0,13.0,69,0.00,,FEW170,0.00,0.00,VWS V14.01,2013-02-06 07:31:00,
2013-02-06 00:36:00,37.0,26.7,29.75,West,279,1.0,6.0,66,0.00,,FEW170,0.00,0.00,VWS V14.01,2013-02-06 07:36:00,
2013-02-06 00:41:00,35.9,26.4,29.75,WSW,254,2.0,6.0,68,0.00,,FEW170,0.00,0.00,VWS V14.01,2013-02-06 07:41:00,
2013-02-06 00:46:00,35.0,25.9,29.75,West,273,2.0,6.0,69,0.00,,FEW170,0.00,0.00,VWS V14.01,2013-02-06 07:46:00,
2013-02-06 00:51:00,34.2,25.5,29.76,West,261,3.0,6.0,70,0.00,,FEW170,0.00,0.00,VWS V14.01,2013-02-06 07:51:00,
2013-02-06 00:56:00,33.6,25.2,29.75,WSW,250,3.0,6.0,71,0.00,,FEW170,0.00,0.00,VWS V14.01,2013-02-06 07:56:00,
2013-02-06 01:00:00,30.2,24.5,29.75,WSW,250,3.0,5.0,79,0.00,,OVC090,0.00,0.00,VWS V14.01,2013-02-06 08:00:00,
2013-02-06 01:01:00,32.5,24.8,29.75,WSW,250,4.0,6.0,73,0.00,,FEW170,0.00,0.00,VWS V14.01,2013-02-06 08:01:00,
2013-02-06 01:06:00,31.7,24.4,29.75,West,259,2.0,4.0,74,0.00,,CLR,0.00,0.00,VWS V14.01,2013-02-06 08:06:00,
2013-02-06 01:11:00,31.4,24.7,29.75,West,264,3.0,4.0,76,0.00,,CLR,0.00,0.00,VWS V14.01,2013-02-06 08:11:00,
2013-02-06 01:16:00,31.3,24.6,29.75,West,261,3.0,4.0,76,0.00,,CLR,0.00,0.00,VWS V14.01,2013-02-06 08:16:00,
2013-02-06 01:21:00,31.1,24.8,29.76,WSW,258,3.0,4.0,77,0.00,,CLR,0.00,0.00,VWS V14.01,2013-02-06 08:21:00,
2013-02-06 01:26:00,30.8,24.5,29.75,WSW,253,3.0,4.0,77,0.00,,CLR,0.00,0.00,VWS V14.01,2013-02-06 08:26:00,
2013-02-06 01:30:00,29.3,23.3,29.74,WSW,252,3.0,6.0,78,0.00,,OVC090,0.00,0.00,VWS V14.01,2013-02-06 08:30:00,
2013-02-06 01:31:00,30.6,24.6,29.75,WSW,257,3.0,3.0,78,0.00,,CLR,0.00,0.00,VWS V14.01,2013-02-06 08:31:00,
2013-02-06 01:36:00,30.5,24.5,29.75,WSW,257,4.0,4.0,78,0.00,,CLR,0.00,0.00,VWS V14.01,2013-02-06 08:36:00,
2013-02-06 01:41:00,30.5,24.8,29.75,WSW,244,3.0,4.0,79,0.00,,CLR,0.00,0.00,VWS V14.01,2013-02-06 08:41:00,
2013-02-06 01:46:00,30.5,24.8,29.75,WSW,248,3.0,4.0,79,0.00,,CLR,0.00,0.00,VWS V14.01,2013-02-06 08:46:00,
2013-02-06 01:51:00,30.4,24.7,29.75,WSW,244,2.0,4.0,79,0.00,,CLR,0.00,0.00,VWS V14.01,2013-02-06 08:51:00,
2013-02-06 01:56:00,30.2,24.5,29.75,WSW,248,4.0,5.0,79,0.00,,CLR,0.00,0.00,VWS V14.01,2013-02-06 08:56:00,
2013-02-06 02:00:00,32.1,25.7,29.73,SW,236,2.0,4.0,77,0.00,,OVC090,0.00,0.00,VWS V14.01,2013-02-06 09:00:00,
2013-02-06 02:01:00,30.2,24.5,29.75,West,259,3.0,4.0,79,0.00,,CLR,0.00,0.00,VWS V14.01,2013-02-06 09:01:00,
2013-02-06 02:06:00,30.2,24.5,29.75,WSW,247,3.0,5.0,79,0.00,,CLR,0.00,0.00,VWS V14.01,2013-02-06 09:06:00,
2013-02-06 02:11:00,30.2,24.8,29.75,WSW,244,3.0,6.0,80,0.00,,CLR,0.00,0.00,VWS V14.01,2013-02-06 09:11:00,
2013-02-06 02:16:00,30.5,24.8,29.74,WSW,254,2.0,6.0,79,0.00,,CLR,0.00,0.00,VWS V14.01,2013-02-06 09:16:00,
2013-02-06 02:21:00,30.5,24.8,29.74,West,261,3.0,6.0,79,0.00,,CLR,0.00,0.00,VWS V14.01,2013-02-06 09:21:00,
2013-02-06 02:26:00,30.3,24.6,29.74,West,273,1.0,6.0,79,0.00,,CLR,0.00,0.00,VWS V14.01,2013-02-06 09:26:00,
2013-02-06 02:30:00,28.8,22.8,29.74,WNW,286,0.0,4.0,78,0.00,,OVC090,0.00,0.00,VWS V14.01,2013-02-06 09:30:00,
2013-02-06 02:31:00,29.1,23.1,29.75,WSW,253,4.0,4.0,78,0.00,,CLR,0.00,0.00,VWS V14.01,2013-02-06 09:31:00,
2013-02-06 02:36:00,28.4,23.0,29.75,WSW,253,1.0,4.0,80,0.00,,CLR,0.00,0.00,VWS V14.01,2013-02-06 09:36:00,
2013-02-06 02:41:00,28.0,22.9,29.74,WSW,238,2.0,4.0,81,0.00,,CLR,0.00,0.00,VWS V14.01,2013-02-06 09:41:00,
2013-02-06 02:46:00,29.3,24.5,29.74,SW,232,3.0,4.0,82,0.00,,CLR,0.00,0.00,VWS V14.01,2013-02-06 09:46:00,
2013-02-06 02:51:00,30.7,25.6,29.73,SW,234,3.0,4.0,81,0.00,,CLR,0.00,0.00,VWS V14.01,2013-02-06 09:51:00,
2013-02-06 02:56:00,31.7,25.9,29.72,SW,236,1.0,4.0,79,0.00,,CLR,0.00,0.00,VWS V14.01,2013-02-06 09:56:00,
2013-02-06 03:00:00,28.4,23.6,29.75,West,275,2.0,3.0,82,0.00,,OVC090,0.00,0.00,VWS V14.01,2013-02-06 10:00:00,
2013-02-06 03:01:00,32.2,25.8,29.74,SW,236,2.0,2.0,77,0.00,,CLR,0.00,0.00,VWS V14.01,2013-02-06 10:01:00,
2013-02-06 03:06:00,31.2,23.9,29.74,West,273,2.0,3.0,74,0.00,,CLR,0.00,0.00,VWS V14.01,2013-02-06 10:06:00,
2013-02-06 03:11:00,29.4,22.5,29.75,West,264,2.0,3.0,75,0.00,,CLR,0.00,0.00,VWS V14.01,2013-02-06 10:11:00,
2013-02-06 03:16:00,29.9,24.2,29.74,West,263,1.0,3.0,79,0.00,,CLR,0.00,0.00,VWS V14.01,2013-02-06 10:16:00,
2013-02-06 03:21:00,30.4,24.4,29.74,West,264,0.0,3.0,78,0.00,,CLR,0.00,0.00,VWS V14.01,2013-02-06 10:21:00,
2013-02-06 03:26:00,29.5,23.2,29.74,WNW,286,1.0,4.0,77,0.00,,CLR,0.00,0.00,VWS V14.01,2013-02-06 10:26:00,
2013-02-06 03:30:00,30.0,24.9,29.74,West,264,2.0,3.0,81,0.00,,OVC090,0.00,0.00,VWS V14.01,2013-02-06 10:30:00,
2013-02-06 03:31:00,28.7,22.7,29.74,WNW,286,0.0,1.0,78,0.00,,CLR,0.00,0.00,VWS V14.01,2013-02-06 10:31:00,
2013-02-06 03:36:00,28.1,22.4,29.75,West,281,1.0,2.0,79,0.00,,CLR,0.00,0.00,VWS V14.01,2013-02-06 10:36:00,
2013-02-06 03:41:00,28.0,22.9,29.75,West,279,1.0,2.0,81,0.00,,CLR,0.00,0.00,VWS V14.01,2013-02-06 10:41:00,
2013-02-06 03:46:00,27.9,22.8,29.75,West,279,1.0,2.0,81,0.00,,CLR,0.00,0.00,VWS V14.01,2013-02-06 10:46:00,
2013-02-06 03:51:00,28.1,23.3,29.75,West,281,2.0,3.0,82,0.00,,CLR,0.00,0.00,VWS V14.01,2013-02-06 10:51:00,
2013-02-06 03:56:00,28.4,23.6,29.75,West,278,1.0,3.0,82,0.00,,CLR,0.00,0.00,VWS V14.01,2013-02-06 10:56:00,
2013-02-06 04:00:00,30.1,23.5,29.75,West,267,1.0,4.0,76,0.00,,OVC090,0.00,0.00,VWS V14.01,2013-02-06 11:00:00,
2013-02-06 04:01:00,28.5,23.4,29.75,West,269,1.0,2.0,81,0.00,,CLR,0.00,0.00,VWS V14.01,2013-02-06 11:01:00,
2013-02-06 04:06:00,28.4,23.3,29.75,West,267,1.0,3.0,81,0.00,,CLR,0.00,0.00,VWS V14.01,2013-02-06 11:06:00,
2013-02-06 04:11:00,28.4,23.3,29.75,West,268,1.0,3.0,81,0.00,,CLR,0.00,0.00,VWS V14.01,2013-02-06 11:11:00,
2013-02-06 04:16:00,28.5,23.4,29.75,West,259,3.0,3.0,81,0.00,,CLR,0.00,0.00,VWS V14.01,2013-02-06 11:16:00,
2013-02-06 04:21:00,29.0,24.2,29.75,West,265,2.0,3.0,82,0.00,,CLR,0.00,0.00,VWS V14.01,2013-02-06 11:21:00,
2013-02-06 04:26:00,29.6,24.5,29.74,West,265,1.0,3.0,81,0.00,,CLR,0.00,0.00,VWS V14.01,2013-02-06 11:26:00,
2013-02-06 04:30:00,29.2,23.8,29.77,West,269,2.0,3.0,80,0.00,,OVC090,0.00,0.00,VWS V14.01,2013-02-06 11:30:00,
2013-02-06 04:31:00,30.1,24.7,29.74,West,263,2.0,3.0,80,0.00,,CLR,0.00,0.00,VWS V14.01,2013-02-06 11:31:00,
2013-02-06 04:36:00,30.7,25.0,29.75,West,266,2.0,3.0,79,0.00,,CLR,0.00,0.00,VWS V14.01,2013-02-06 11:36:00,
2013-02-06 04:41:00,31.5,25.4,29.75,West,271,2.0,4.0,78,0.00,,CLR,0.00,0.00,VWS V14.01,2013-02-06 11:41:00,
2013-02-06 04:46:00,31.8,25.4,29.75,West,267,1.0,4.0,77,0.00,,CLR,0.00,0.00,VWS V14.01,2013-02-06 11:46:00,
2013-02-06 04:51:00,31.5,24.5,29.74,West,267,1.0,4.0,75,0.00,,CLR,0.00,0.00,VWS V14.01,2013-02-06 11:51:00,
2013-02-06 04:56:00,30.8,23.8,29.75,West,267,2.0,4.0,75,0.00,,CLR,0.00,0.00,VWS V14.01,2013-02-06 11:56:00,
2013-02-06 05:00:00,30.0,24.3,29.77,West,265,0.0,3.0,79,0.00,,OVC090,0.00,0.00,VWS V14.01,2013-02-06 12:00:00,
2013-02-06 05:01:00,30.0,23.7,29.76,West,264,1.0,2.0,77,0.00,,CLR,0.00,0.00,VWS V14.01,2013-02-06 12:01:00,
2013-02-06 05:06:00,29.4,23.1,29.77,West,266,2.0,2.0,77,0.00,,CLR,0.00,0.00,VWS V14.01,2013-02-06 12:06:00,
2013-02-06 05:11:00,28.5,22.5,29.77,West,265,2.0,3.0,78,0.00,,CLR,0.00,0.00,VWS V14.01,2013-02-06 12:11:00,
2013-02-06 05:16:00,28.2,22.5,29.77,West,264,0.0,3.0,79,0.00,,CLR,0.00,0.00,VWS V14.01,2013-02-06 12:16:00,
2013-02-06 05:21:00,28.5,23.1,29.77,West,265,1.0,3.0,80,0.00,,CLR,0.00,0.00,VWS V14.01,2013-02-06 12:21:00,
2013-02-06 05:26:00,28.9,23.5,29.77,West,261,3.0,3.0,80,0.00,,CLR,0.00,0.00,VWS V14.01,2013-02-06 12:26:00,
2013-02-06 05:30:00,27.8,23.3,29.80,South,187,0.0,3.0,83,0.00,,OVC090,0.00,0.00,VWS V14.01,2013-02-06 12:30:00,
2013-02-06 05:31:00,29.3,23.9,29.77,West,270,0.0,3.0,80,0.00,,CLR,0.00,0.00,VWS V14.01,2013-02-06 12:31:00,
2013-02-06 05:36:00,29.3,23.9,29.77,West,264,2.0,3.0,80,0.00,,CLR,0.00,0.00,VWS V14.01,2013-02-06 12:36:00,
2013-02-06 05:41:00,29.2,23.8,29.78,West,264,1.0,3.0,80,0.00,,CLR,0.00,0.00,VWS V14.01,2013-02-06 12:41:00,
2013-02-06 05:46:00,29.5,24.1,29.78,West,264,0.0,3.0,80,0.00,,CLR,0.00,0.00,VWS V14.01,2013-02-06 12:46:00,
2013-02-06 05:52:00,29.8,24.4,29.77,West,264,1.0,3.0,80,0.00,,CLR,0.00,0.00,VWS V14.01,2013-02-06 12:52:00,
2013-02-06 05:57:00,30.1,24.4,29.77,West,265,0.0,3.0,79,0.00,,CLR,0.00,0.00,VWS V14.01,2013-02-06 12:57:00,
2013-02-06 06:00:00,29.5,24.4,29.80,South,190,1.0,2.0,81,0.00,,OVC090,0.00,0.00,VWS V14.01,2013-02-06 13:00:00,
2013-02-06 06:02:00,30.0,24.3,29.78,West,265,0.0,0.0,79,0.00,,CLR,0.00,0.00,VWS V14.01,2013-02-06 13:02:00,
2013-02-06 06:07:00,29.4,23.4,29.78,West,277,3.0,3.0,78,0.00,,CLR,0.00,0.00,VWS V14.01,2013-02-06 13:07:00,
2013-02-06 06:12:00,28.1,22.1,29.79,WNW,286,0.0,3.0,78,0.00,,CLR,0.00,0.00,VWS V14.01,2013-02-06 13:12:00,
2013-02-06 06:17:00,27.4,21.8,29.80,WNW,286,1.0,3.0,79,0.00,,CLR,0.00,0.00,VWS V14.01,2013-02-06 13:17:00,
2013-02-06 06:22:00,27.2,22.1,29.80,SSW,204,2.0,3.0,81,0.00,,CLR,0.00,0.00,VWS V14.01,2013-02-06 13:22:00,
2013-02-06 06:27:00,27.3,22.5,29.80,South,187,0.0,3.0,82,0.00,,CLR,0.00,0.00,VWS V14.01,2013-02-06 13:27:00,
2013-02-06 06:30:00,27.6,23.4,29.82,WSW,256,0.0,3.0,84,0.00,,OVC090,0.00,46.00,VWS V14.01,2013-02-06 13:30:00,
2013-02-06 06:32:00,28.0,23.5,29.80,South,187,2.0,2.0,83,0.00,,CLR,0.00,0.00,VWS V14.01,2013-02-06 13:32:00,
2013-02-06 06:37:00,28.7,24.2,29.79,South,186,0.0,2.0,83,0.00,,CLR,0.00,0.00,VWS V14.01,2013-02-06 13:37:00,
2013-02-06 06:42:00,29.1,24.3,29.79,South,187,1.0,2.0,82,0.00,,CLR,0.00,0.00,VWS V14.01,2013-02-06 13:42:00,
2013-02-06 06:47:00,29.6,24.8,29.79,South,187,0.0,2.0,82,0.00,,CLR,0.00,0.00,VWS V14.01,2013-02-06 13:47:00,
2013-02-06 06:52:00,29.7,24.6,29.79,South,186,0.0,2.0,81,0.00,,CLR,0.00,0.00,VWS V14.01,2013-02-06 13:52:00,
2013-02-06 06:57:00,29.6,24.5,29.79,South,187,0.0,2.0,81,0.00,,CLR,0.00,0.00,VWS V14.01,2013-02-06 13:57:00,
2013-02-06 07:00:00,30.3,26.1,29.83,West,276,2.0,3.0,84,0.00,,OVC090,0.00,153.00,VWS V14.01,2013-02-06 14:00:00,
2013-02-06 07:02:00,29.5,24.1,29.80,South,190,0.0,1.0,80,0.00,,CLR,0.00,0.00,VWS V14.01,2013-02-06 14:02:00,
2013-02-06 07:07:00,28.8,23.4,29.81,West,271,0.0,3.0,80,0.00,,CLR,0.00,0.00,VWS V14.01,2013-02-06 14:07:00,
2013-02-06 07:12:00,27.9,22.5,29.81,West,271,2.0,3.0,80,0.00,,CLR,0.00,9.00,VWS V14.01,2013-02-06 14:12:00,
2013-02-06 07:17:00,27.1,22.4,29.82,WSW,257,2.0,3.0,82,0.00,,CLR,0.00,16.00,VWS V14.01,2013-02-06 14:17:00,
2013-02-06 07:22:00,27.1,22.6,29.82,WSW,256,1.0,3.0,83,0.00,,CLR,0.00,26.00,VWS V14.01,2013-02-06 14:22:00,
2013-02-06 07:27:00,27.4,22.9,29.82,WSW,257,1.0,3.0,83,0.00,,CLR,0.00,33.00,VWS V14.01,2013-02-06 14:27:00,
2013-02-06 07:30:00,37.3,29.5,29.84,NW,319,4.0,9.0,73,0.00,,OVC090,0.00,121.00,VWS V14.01,2013-02-06 14:30:00,
2013-02-06 07:32:00,27.6,23.4,29.82,WSW,256,0.0,1.0,84,0.00,,CLR,0.00,47.00,VWS V14.01,2013-02-06 14:32:00,
2013-02-06 07:37:00,27.9,23.7,29.82,West,271,1.0,3.0,84,0.00,,CLR,0.00,49.00,VWS V14.01,2013-02-06 14:37:00,
2013-02-06 07:42:00,28.3,24.1,29.82,West,271,0.0,3.0,84,0.00,,CLR,0.00,53.00,VWS V14.01,2013-02-06 14:42:00,
2013-02-06 07:47:00,28.6,24.4,29.82,West,273,1.0,3.0,84,0.00,,CLR,0.00,86.00,VWS V14.01,2013-02-06 14:47:00,
2013-02-06 07:52:00,29.2,25.0,29.83,NNW,337,1.0,3.0,84,0.00,,CLR,0.00,100.00,VWS V14.01,2013-02-06 14:52:00,
2013-02-06 07:57:00,29.8,25.6,29.83,West,272,2.0,3.0,84,0.00,,CLR,0.00,141.00,VWS V14.01,2013-02-06 14:57:00,
2013-02-06 08:00:00,38.4,29.5,29.84,WSW,248,1.0,9.0,70,0.00,,OVC090,0.00,113.00,VWS V14.01,2013-02-06 15:00:00,
2013-02-06 08:02:00,30.4,26.1,29.85,WSW,254,3.0,3.0,84,0.00,,CLR,0.00,148.00,VWS V14.01,2013-02-06 15:02:00,
2013-02-06 08:07:00,31.3,27.0,29.85,WSW,239,4.0,4.0,84,0.00,,CLR,0.00,102.00,VWS V14.01,2013-02-06 15:07:00,
2013-02-06 08:12:00,32.4,27.5,29.85,WSW,245,2.0,4.0,82,0.00,,CLR,0.00,118.00,VWS V14.01,2013-02-06 15:12:00,
2013-02-06 08:17:00,34.1,28.9,29.85,WNW,289,2.0,9.0,81,0.00,,CLR,0.00,130.00,VWS V14.01,2013-02-06 15:17:00,
2013-02-06 08:22:00,35.5,29.3,29.84,WNW,290,1.0,9.0,78,0.00,,CLR,0.00,121.00,VWS V14.01,2013-02-06 15:22:00,
2013-02-06 08:27:00,36.4,29.2,29.85,NW,318,3.0,9.0,75,0.00,,CLR,0.00,144.00,VWS V14.01,2013-02-06 15:27:00,
2013-02-06 08:30:00,39.3,30.0,29.83,WSW,248,1.0,6.0,69,0.00,,OVC090,0.00,246.00,VWS V14.01,2013-02-06 15:30:00,
2013-02-06 08:32:00,37.6,29.4,29.84,NW,311,3.0,6.0,72,0.00,,CLR,0.00,127.00,VWS V14.01,2013-02-06 15:32:00,
2013-02-06 08:37:00,38.5,29.2,29.84,SE,135,1.0,9.0,69,0.00,,CLR,0.00,127.00,VWS V14.01,2013-02-06 15:37:00,
2013-02-06 08:42:00,38.7,29.4,29.83,SW,222,3.0,9.0,69,0.00,,CLR,0.00,123.00,VWS V14.01,2013-02-06 15:42:00,
2013-02-06 08:47:00,38.3,29.0,29.84,WSW,244,5.0,9.0,69,0.00,,CLR,0.00,102.00,VWS V14.01,2013-02-06 15:47:00,
2013-02-06 08:52:00,38.3,29.0,29.84,West,277,1.0,9.0,69,0.00,,CLR,0.00,100.00,VWS V14.01,2013-02-06 15:52:00,
2013-02-06 08:57:00,38.4,29.1,29.84,WSW,238,3.0,9.0,69,0.00,,CLR,0.00,105.00,VWS V14.01,2013-02-06 15:57:00,
2013-02-06 09:00:00,44.2,31.2,29.83,NNW,337,1.0,9.0,60,0.00,,OVC090,0.00,229.00,VWS V14.01,2013-02-06 16:00:00,
2013-02-06 09:02:00,38.5,29.6,29.83,WSW,243,4.0,4.0,70,0.00,,CLR,0.00,118.00,VWS V14.01,2013-02-06 16:02:00,
2013-02-06 09:07:00,38.6,29.7,29.83,WSW,238,4.0,5.0,70,0.00,,250BKN,0.00,139.00,VWS V14.01,2013-02-06 16:07:00,
2013-02-06 09:12:00,38.6,29.3,29.83,West,261,3.0,6.0,69,0.00,,250BKN,0.00,155.00,VWS V14.01,2013-02-06 16:12:00,
2013-02-06 09:17:00,38.5,29.2,29.83,West,259,2.0,6.0,69,0.00,,250BKN,0.00,139.00,VWS V14.01,2013-02-06 16:17:00,
2013-02-06 09:22:00,38.7,29.8,29.83,West,271,2.0,6.0,70,0.00,,250BKN,0.00,153.00,VWS V14.01,2013-02-06 16:22:00,
2013-02-06 09:27:00,38.8,29.9,29.83,WSW,248,1.0,6.0,70,0.00,,250BKN,0.00,232.00,VWS V14.01,2013-02-06 16:27:00,
2013-02-06 09:30:00,50.6,31.6,29.81,North,350,13.0,23.0,48,0.00,,OVC090,0.00,371.00,VWS V14.01,2013-02-06 16:30:00,
2013-02-06 09:32:00,39.5,30.2,29.84,WSW,248,1.0,1.0,69,0.00,,250BKN,0.00,272.00,VWS V14.01,2013-02-06 16:32:00,
2013-02-06 09:37:00,40.4,30.3,29.84,WSW,254,2.0,4.0,67,0.00,,250BKN,0.00,267.00,VWS V14.01,2013-02-06 16:37:00,
2013-02-06 09:42:00,41.2,30.3,29.83,West,262,2.0,4.0,65,0.00,,250BKN,0.00,283.00,VWS V14.01,2013-02-06 16:42:00,
2013-02-06 09:47:00,42.1,30.8,29.83,WSW,257,3.0,4.0,64,0.00,,250BKN,0.00,267.00,VWS V14.01,2013-02-06 16:47:00,
2013-02-06 09:52:00,43.0,31.3,29.83,WNW,294,3.0,4.0,63,0.00,,250BKN,0.00,283.00,VWS V14.01,2013-02-06 16:52:00,
2013-02-06 09:57:00,43.7,32.0,29.83,NW,308,3.0,4.0,63,0.00,,250BKN,0.00,287.00,VWS V14.01,2013-02-06 16:57:00,
2013-02-06 10:00:00,50.4,29.9,29.82,NNW,347,10.0,23.0,45,0.00,,OVC090,0.00,420.00,VWS V14.01,2013-02-06 17:00:00,
2013-02-06 10:02:00,44.8,31.4,29.83,NW,322,6.0,10.0,59,0.00,,250BKN,0.00,234.00,VWS V14.01,2013-02-06 17:02:00,
2013-02-06 10:07:00,46.1,31.7,29.82,NW,323,13.0,13.0,57,0.00,,BKN250,0.00,302.00,VWS V14.01,2013-02-06 17:07:00,
2013-02-06 10:12:00,47.9,31.6,29.82,NNW,330,10.0,16.0,53,0.00,,BKN250,0.00,320.00,VWS V14.01,2013-02-06 17:12:00,
2013-02-06 10:17:00,49.2,31.9,29.82,NNW,329,15.0,20.0,51,0.00,,BKN250,0.00,341.00,VWS V14.01,2013-02-06 17:17:00,
2013-02-06 10:22:00,50.0,31.1,29.81,NNW,347,20.0,23.0,48,0.00,,BKN250,0.00,352.00,VWS V14.01,2013-02-06 17:22:00,
2013-02-06 10:27:00,50.4,31.5,29.81,NW,322,19.0,23.0,48,0.00,,BKN250,0.00,350.00,VWS V14.01,2013-02-06 17:27:00,
2013-02-06 10:30:00,50.3,28.7,29.82,WNW,303,20.0,25.0,43,0.00,,OVC090,0.00,401.00,VWS V14.01,2013-02-06 17:30:00,
2013-02-06 10:32:00,50.6,31.1,29.81,NNW,327,17.0,21.0,47,0.00,,BKN250,0.00,383.00,VWS V14.01,2013-02-06 17:32:00,
2013-02-06 10:37:00,50.9,31.4,29.82,North,355,18.0,23.0,47,0.00,,BKN250,0.00,239.00,VWS V14.01,2013-02-06 17:37:00,
2013-02-06 10:42:00,50.5,31.0,29.82,NW,319,18.0,23.0,47,0.00,,BKN250,0.00,338.00,VWS V14.01,2013-02-06 17:42:00,
2013-02-06 10:47:00,50.4,30.4,29.82,NNW,342,10.0,23.0,46,0.00,,BKN250,0.00,299.00,VWS V14.01,2013-02-06 17:47:00,
2013-02-06 10:52:00,50.2,30.2,29.82,NNW,345,20.0,23.0,46,0.00,,BKN250,0.00,367.00,VWS V14.01,2013-02-06 17:52:00,
2013-02-06 10:57:00,50.2,29.7,29.82,NNW,348,10.0,23.0,45,0.00,,BKN250,0.00,373.00,VWS V14.01,2013-02-06 17:57:00,
2013-02-06 11:00:00,50.5,30.0,29.82,NW,304,12.0,26.0,45,0.00,,OVC090,0.00,506.00,VWS V14.01,2013-02-06 18:00:00,
2013-02-06 11:02:00,50.5,30.5,29.83,North,360,11.0,25.0,46,0.00,,BKN250,0.00,445.00,VWS V14.01,2013-02-06 18:02:00,
2013-02-06 11:07:00,50.6,30.1,29.83,NNW,337,13.0,25.0,45,0.00,,SCT250,0.00,418.00,VWS V14.01,2013-02-06 18:07:00,
2013-02-06 11:12:00,50.2,29.1,29.83,NNE,19,16.0,25.0,44,0.00,,SCT250,0.00,434.00,VWS V14.01,2013-02-06 18:12:00,
2013-02-06 11:17:00,50.4,29.9,29.83,North,355,13.0,25.0,45,0.00,,SCT250,0.00,508.00,VWS V14.01,2013-02-06 18:17:00,
2013-02-06 11:22:00,50.6,29.5,29.82,NNW,342,17.0,25.0,44,0.00,,SCT250,0.00,492.00,VWS V14.01,2013-02-06 18:22:00,
2013-02-06 11:27:00,50.2,29.1,29.83,NW,322,12.0,25.0,44,0.00,,SCT250,0.00,494.00,VWS V14.01,2013-02-06 18:27:00,
2013-02-06 11:30:00,50.4,30.4,29.84,NW,318,13.0,25.0,46,0.00,,OVC090,0.00,462.00,VWS V14.01,2013-02-06 18:30:00,
2013-02-06 11:32:00,50.1,29.0,29.83,NNW,333,13.0,20.0,44,0.00,,SCT250,0.00,411.00,VWS V14.01,2013-02-06 18:32:00,
2013-02-06 11:37:00,50.1,29.0,29.83,North,355,16.0,24.0,44,0.00,,SCT250,0.00,443.00,VWS V14.01,2013-02-06 18:37:00,
2013-02-06 11:42:00,50.1,29.0,29.82,North,360,18.0,25.0,44,0.00,,SCT250,0.00,446.00,VWS V14.01,2013-02-06 18:42:00,
2013-02-06 11:48:00,50.3,29.2,29.82,North,355,12.0,25.0,44,0.00,,SCT250,0.00,585.00,VWS V14.01,2013-02-06 18:48:00,
2013-02-06 11:53:00,50.6,29.5,29.82,NNW,338,10.0,26.0,44,0.00,,SCT250,0.00,570.00,VWS V14.01,2013-02-06 18:53:00,
2013-02-06 11:58:00,50.4,29.3,29.82,NW,323,14.0,26.0,44,0.00,,SCT250,0.00,508.00,VWS V14.01,2013-02-06 18:58:00,
2013-02-06 12:00:00,50.5,30.5,29.83,NNW,333,14.0,27.0,46,0.00,,OVC090,0.00,561.00,VWS V14.01,2013-02-06 19:00:00,
2013-02-06 12:03:00,50.6,30.1,29.83,North,355,14.0,20.0,45,0.00,,SCT250,0.00,501.00,VWS V14.01,2013-02-06 19:03:00,
2013-02-06 12:08:00,50.3,30.3,29.83,NNW,327,16.0,25.0,46,0.00,,BKN250,0.00,485.00,VWS V14.01,2013-02-06 19:08:00,
2013-02-06 12:13:00,50.2,29.7,29.83,NW,320,11.0,25.0,45,0.00,,BKN250,0.00,475.00,VWS V14.01,2013-02-06 19:13:00,
2013-02-06 12:18:00,50.5,30.5,29.83,WNW,294,11.0,25.0,46,0.00,,BKN250,0.00,459.00,VWS V14.01,2013-02-06 19:18:00,
2013-02-06 12:23:00,50.5,30.5,29.83,NW,323,19.0,25.0,46,0.00,,BKN250,0.00,482.00,VWS V14.01,2013-02-06 19:23:00,
2013-02-06 12:28:00,50.5,30.5,29.83,West,275,20.0,25.0,46,0.00,,BKN250,0.00,450.00,VWS V14.01,2013-02-06 19:28:00,
2013-02-06 12:30:00,49.8,29.3,29.84,North,355,21.0,27.0,45,0.00,,OVC090,0.00,341.00,VWS V14.01,2013-02-06 19:30:00,
2013-02-06 12:33:00,50.5,30.5,29.83,NW,308,18.0,22.0,46,0.00,,BKN250,0.00,424.00,VWS V14.01,2013-02-06 19:33:00,
2013-02-06 12:38:00,50.0,30.6,29.83,NNW,341,17.0,27.0,47,0.00,,BKN250,0.00,425.00,VWS V14.01,2013-02-06 19:38:00,
2013-02-06 12:43:00,50.0,30.0,29.84,NNW,336,19.0,27.0,46,0.00,,BKN250,0.00,373.00,VWS V14.01,2013-02-06 19:43:00,
2013-02-06 12:48:00,50.1,30.1,29.84,North,355,19.0,27.0,46,0.00,,BKN250,0.00,454.00,VWS V14.01,2013-02-06 19:48:00,
2013-02-06 12:53:00,50.1,30.1,29.84,NW,315,20.0,27.0,46,0.00,,BKN250,0.00,471.00,VWS V14.01,2013-02-06 19:53:00,
2013-02-06 12:58:00,50.4,31.0,29.84,NW,318,12.0,27.0,47,0.00,,BKN250,0.00,508.00,VWS V14.01,2013-02-06 19:58:00,
2013-02-06 13:00:00,50.0,29.0,29.85,North,5,17.0,30.0,44,0.00,,OVC090,0.00,174.00,VWS V14.01,2013-02-06 20:00:00,
2013-02-06 13:03:00,50.8,31.3,29.84,North,350,17.0,22.0,47,0.00,,BKN250,0.00,573.00,VWS V14.01,2013-02-06 20:03:00,
2013-02-06 13:08:00,50.2,30.2,29.84,North,10,16.0,25.0,46,0.00,,BKN110,0.00,473.00,VWS V14.01,2013-02-06 20:08:00,
2013-02-06 13:13:00,50.4,31.0,29.84,NNW,342,11.0,25.0,47,0.00,,BKN110,0.00,441.00,VWS V14.01,2013-02-06 20:13:00,
2013-02-06 13:18:00,50.5,30.5,29.84,NNW,336,13.0,25.0,46,0.00,,BKN110,0.00,345.00,VWS V14.01,2013-02-06 20:18:00,
2013-02-06 13:23:00,49.4,29.5,29.85,NNW,343,11.0,25.0,46,0.00,,BKN110,0.00,204.00,VWS V14.01,2013-02-06 20:23:00,
2013-02-06 13:28:00,49.3,29.4,29.85,NNW,340,16.0,27.0,46,0.00,,BKN110,0.00,394.00,VWS V14.01,2013-02-06 20:28:00,
2013-02-06 13:30:00,49.1,27.6,29.86,NNW,346,17.0,25.0,43,0.00,,OVC090,0.00,155.00,VWS V14.01,2013-02-06 20:30:00,
2013-02-06 13:33:00,49.7,28.7,29.85,North,355,13.0,26.0,44,0.00,,BKN110,0.00,439.00,VWS V14.01,2013-02-06 20:33:00,
2013-02-06 13:38:00,49.3,28.3,29.85,NNW,331,27.0,27.0,44,0.00,,BKN110,0.00,165.00,VWS V14.01,2013-02-06 20:38:00,
2013-02-06 13:43:00,48.9,28.5,29.85,WNW,298,14.0,30.0,45,0.00,,BKN110,0.00,181.00,VWS V14.01,2013-02-06 20:43:00,
2013-02-06 13:48:00,48.9,28.5,29.86,NW,323,17.0,30.0,45,0.00,,BKN110,0.00,227.00,VWS V14.01,2013-02-06 20:48:00,
2013-02-06 13:53:00,49.3,28.9,29.86,NW,313,11.0,30.0,45,0.00,,BKN110,0.00,195.00,VWS V14.01,2013-02-06 20:53:00,
2013-02-06 13:58:00,50.1,29.0,29.85,NW,310,12.0,30.0,44,0.00,,BKN110,0.00,496.00,VWS V14.01,2013-02-06 20:58:00,
2013-02-06 14:00:00,48.8,27.3,29.88,NW,322,16.0,29.0,43,0.00,,OVC090,0.00,109.00,VWS V14.01,2013-02-06 21:00:00,
2013-02-06 14:03:00,49.8,28.8,29.85,NW,304,10.0,17.0,44,0.00,,BKN110,0.00,174.00,VWS V14.01,2013-02-06 21:03:00,
2013-02-06 14:08:00,49.3,28.3,29.86,NW,310,13.0,24.0,44,0.00,,BKN130,0.00,429.00,VWS V14.01,2013-02-06 21:08:00,
2013-02-06 14:13:00,49.2,28.2,29.86,NNW,335,15.0,24.0,44,0.00,,BKN130,0.00,237.00,VWS V14.01,2013-02-06 21:13:00,
2013-02-06 14:18:00,49.1,28.1,29.86,NNW,336,10.0,24.0,44,0.00,,BKN130,0.00,179.00,VWS V14.01,2013-02-06 21:18:00,
2013-02-06 14:23:00,49.1,27.6,29.86,NW,306,16.0,25.0,43,0.00,,BKN130,0.00,169.00,VWS V14.01,2013-02-06 21:23:00,
2013-02-06 14:28:00,49.2,28.2,29.86,NW,313,17.0,25.0,44,0.00,,BKN130,0.00,156.00,VWS V14.01,2013-02-06 21:28:00,
2013-02-06 14:30:00,47.8,27.5,29.90,NNW,341,12.0,26.0,45,0.00,,OVC090,0.00,58.00,VWS V14.01,2013-02-06 21:30:00,
2013-02-06 14:33:00,49.0,27.5,29.86,NW,315,12.0,21.0,43,0.00,,BKN130,0.00,171.00,VWS V14.01,2013-02-06 21:33:00,
2013-02-06 14:38:00,49.3,27.2,29.86,NW,317,15.0,23.0,42,0.00,,BKN130,0.00,223.00,VWS V14.01,2013-02-06 21:38:00,
2013-02-06 14:43:00,49.4,27.3,29.86,NW,306,13.0,23.0,42,0.00,,BKN130,0.00,183.00,VWS V14.01,2013-02-06 21:43:00,
2013-02-06 14:48:00,49.1,27.0,29.87,North,355,14.0,25.0,42,0.00,,BKN130,0.00,181.00,VWS V14.01,2013-02-06 21:48:00,
2013-02-06 14:53:00,49.2,27.7,29.87,North,360,14.0,29.0,43,0.00,,BKN130,0.00,318.00,VWS V14.01,2013-02-06 21:53:00,
2013-02-06 14:58:00,49.1,27.6,29.88,North,355,12.0,29.0,43,0.00,,BKN130,0.00,149.00,VWS V14.01,2013-02-06 21:58:00,
2013-02-06 15:00:00,47.3,27.6,29.92,NW,310,11.0,19.0,46,0.00,,OVC090,0.00,67.00,VWS V14.01,2013-02-06 22:00:00,
2013-02-06 15:03:00,48.6,27.1,29.89,North,350,10.0,26.0,43,0.00,,OVC085,0.00,98.00,VWS V14.01,2013-02-06 22:03:00,
2013-02-06 15:08:00,48.3,26.9,29.89,NNW,344,16.0,26.0,43,0.00,,OVC085,0.00,188.00,VWS V14.01,2013-02-06 22:08:00,
2013-02-06 15:13:00,48.3,26.9,29.90,NNW,341,10.0,26.0,43,0.00,,OVC085,0.00,100.00,VWS V14.01,2013-02-06 22:13:00,
2013-02-06 15:18:00,48.0,27.1,29.90,North,360,10.0,26.0,44,0.00,,OVC085,0.00,76.00,VWS V14.01,2013-02-06 22:18:00,
2013-02-06 15:23:00,47.8,27.5,29.90,NNW,334,14.0,26.0,45,0.00,,OVC085,0.00,69.00,VWS V14.01,2013-02-06 22:23:00,
2013-02-06 15:28:00,47.8,27.5,29.90,NNW,348,10.0,26.0,45,0.00,,OVC085,0.00,70.00,VWS V14.01,2013-02-06 22:28:00,
2013-02-06 15:30:00,46.8,27.1,29.93,NNW,340,9.0,16.0,46,0.00,,OVC090,0.00,32.00,VWS V14.01,2013-02-06 22:30:00,
2013-02-06 15:33:00,47.6,27.3,29.91,NNW,329,12.0,13.0,45,0.00,,OVC085,0.00,46.00,VWS V14.01,2013-02-06 22:33:00,
2013-02-06 15:38:00,47.6,27.3,29.91,NNW,343,13.0,19.0,45,0.00,,OVC085,0.00,44.00,VWS V14.01,2013-02-06 22:38:00,
2013-02-06 15:43:00,47.6,27.3,29.92,NNW,333,11.0,19.0,45,0.00,,OVC085,0.00,40.00,VWS V14.01,2013-02-06 22:43:00,
2013-02-06 15:49:00,47.5,27.2,29.92,NW,325,7.0,19.0,45,0.00,,OVC085,0.00,46.00,VWS V14.01,2013-02-06 22:49:00,
2013-02-06 15:54:00,47.4,27.7,29.92,NW,312,6.0,19.0,46,0.00,,OVC085,0.00,53.00,VWS V14.01,2013-02-06 22:54:00,
2013-02-06 15:59:00,47.4,27.7,29.92,NW,326,9.0,19.0,46,0.00,,OVC085,0.00,62.00,VWS V14.01,2013-02-06 22:59:00,
2013-02-06 16:00:00,45.5,26.5,29.94,NW,322,7.0,17.0,47,0.00,,OVC090,0.00,11.00,VWS V14.01,2013-02-06 23:00:00,
2013-02-06 16:04:00,47.3,27.0,29.92,NNW,333,9.0,16.0,45,0.00,,BKN130,0.00,62.00,VWS V14.01,2013-02-06 23:04:00,
2013-02-06 16:09:00,47.2,27.0,29.92,NNW,340,11.0,16.0,45,0.00,,BKN130,0.00,47.00,VWS V14.01,2013-02-06 23:09:00,
2013-02-06 16:14:00,47.1,26.9,29.92,North,5,15.0,16.0,45,0.00,,BKN130,0.00,39.00,VWS V14.01,2013-02-06 23:14:00,
2013-02-06 16:19:00,47.0,26.8,29.92,NNW,337,9.0,16.0,45,0.00,,BKN130,0.00,40.00,VWS V14.01,2013-02-06 23:19:00,
2013-02-06 16:24:00,47.0,27.3,29.93,NNW,327,4.0,16.0,46,0.00,,BKN130,0.00,44.00,VWS V14.01,2013-02-06 23:24:00,
2013-02-06 16:29:00,46.9,27.2,29.93,NW,315,9.0,16.0,46,0.00,,BKN130,0.00,39.00,VWS V14.01,2013-02-06 23:29:00,
2013-02-06 16:30:00,43.2,25.4,29.97,NW,315,3.0,10.0,49,0.00,,OVC090,0.00,0.00,VWS V14.01,2013-02-06 23:30:00,
2013-02-06 16:34:00,46.7,27.0,29.93,NW,309,11.0,15.0,46,0.00,,BKN130,0.00,30.00,VWS V14.01,2013-02-06 23:34:00,
2013-02-06 16:39:00,46.5,26.9,29.93,NNW,342,8.0,17.0,46,0.00,,BKN130,0.00,28.00,VWS V14.01,2013-02-06 23:39:00,
2013-02-06 16:44:00,46.2,26.6,29.93,NW,310,12.0,17.0,46,0.00,,BKN130,0.00,21.00,VWS V14.01,2013-02-06 23:44:00,
2013-02-06 16:49:00,45.9,26.8,29.93,NNW,336,8.0,17.0,47,0.00,,BKN130,0.00,25.00,VWS V14.01,2013-02-06 23:49:00,
2013-02-06 16:54:00,45.7,26.6,29.94,NNW,331,8.0,17.0,47,0.00,,BKN130,0.00,21.00,VWS V14.01,2013-02-06 23:54:00,
2013-02-06 16:59:00,45.6,26.5,29.94,NNW,347,5.0,17.0,47,0.00,,BKN130,0.00,14.00,VWS V14.01,2013-02-06 23:59:00,
2013-02-06 17:00:00,40.9,24.6,30.00,NNW,330,0.0,3.0,52,0.00,,OVC090,0.00,0.00,VWS V14.01,2013-02-07 00:00:00,
2013-02-06 17:04:00,45.3,26.3,29.95,WNW,292,5.0,10.0,47,0.00,,BKN085,0.00,7.00,VWS V14.01,2013-02-07 00:04:00,
2013-02-06 17:09:00,45.0,26.0,29.95,NNW,336,5.0,10.0,47,0.00,,BKN085,0.00,5.00,VWS V14.01,2013-02-07 00:09:00,
2013-02-06 17:14:00,44.7,25.7,29.96,NNW,336,3.0,10.0,47,0.00,,BKN085,0.00,0.00,VWS V14.01,2013-02-07 00:14:00,
2013-02-06 17:19:00,44.2,25.8,29.96,NW,321,4.0,10.0,48,0.00,,BKN085,0.00,0.00,VWS V14.01,2013-02-07 00:19:00,
2013-02-06 17:24:00,43.8,25.4,29.96,North,355,2.0,10.0,48,0.00,,BKN085,0.00,0.00,VWS V14.01,2013-02-07 00:24:00,
2013-02-06 17:29:00,43.4,25.5,29.97,NNW,331,0.0,10.0,49,0.00,,BKN085,0.00,0.00,VWS V14.01,2013-02-07 00:29:00,
2013-02-06 17:30:00,37.2,23.4,30.03,West,264,2.0,4.0,57,0.00,,OVC090,0.00,0.00,VWS V14.01,2013-02-07 00:30:00,
2013-02-06 17:34:00,43.0,25.2,29.97,NW,324,2.0,3.0,49,0.00,,BKN085,0.00,0.00,VWS V14.01,2013-02-07 00:34:00,
2013-02-06 17:39:00,42.6,25.3,29.98,NW,321,2.0,3.0,50,0.00,,BKN085,0.00,0.00,VWS V14.01,2013-02-07 00:39:00,
2013-02-06 17:44:00,42.1,25.3,29.98,NW,321,2.0,3.0,51,0.00,,BKN085,0.00,0.00,VWS V14.01,2013-02-07 00:44:00,
2013-02-06 17:49:00,41.7,24.9,29.98,NNW,330,1.0,3.0,51,0.00,,BKN085,0.00,0.00,VWS V14.01,2013-02-07 00:49:00,
2013-02-06 17:54:00,41.5,24.7,29.99,NNW,330,0.0,3.0,51,0.00,,BKN085,0.00,0.00,VWS V14.01,2013-02-07 00:54:00,
2013-02-06 17:59:00,41.2,24.9,29.99,NNW,330,0.0,3.0,52,0.00,,BKN085,0.00,0.00,VWS V14.01,2013-02-07 00:59:00,
2013-02-06 18:00:00,35.2,23.1,30.05,SW,235,0.0,4.0,61,0.00,,OVC090,0.00,0.00,VWS V14.01,2013-02-07 01:00:00,
2013-02-06 18:04:00,40.0,24.3,30.00,SSW,213,3.0,4.0,53,0.00,,FEW140,0.00,0.00,VWS V14.01,2013-02-07 01:04:00,
2013-02-06 18:09:00,38.9,23.7,30.01,SSW,213,1.0,4.0,54,0.00,,FEW140,0.00,0.00,VWS V14.01,2013-02-07 01:09:00,
2013-02-06 18:14:00,38.5,23.8,30.01,SSW,213,1.0,4.0,55,0.00,,FEW140,0.00,0.00,VWS V14.01,2013-02-07 01:14:00,
2013-02-06 18:19:00,38.2,23.9,30.01,SSW,213,1.0,4.0,56,0.00,,FEW140,0.00,0.00,VWS V14.01,2013-02-07 01:19:00,
2013-02-06 18:24:00,37.9,23.6,30.01,SW,230,2.0,4.0,56,0.00,,FEW140,0.00,0.00,VWS V14.01,2013-02-07 01:24:00,
2013-02-06 18:29:00,37.4,23.6,30.02,SW,232,3.0,4.0,57,0.00,,FEW140,0.00,0.00,VWS V14.01,2013-02-07 01:29:00,
2013-02-06 18:30:00,34.1,22.5,30.05,WSW,242,0.0,3.0,62,0.00,,OVC090,0.00,0.00,VWS V14.01,2013-02-07 01:30:00,
2013-02-06 18:34:00,36.8,23.4,30.03,WSW,254,1.0,3.0,58,0.00,,FEW140,0.00,0.00,VWS V14.01,2013-02-07 01:34:00,
2013-02-06 18:39:00,36.3,23.4,30.03,West,262,4.0,4.0,59,0.00,,FEW140,0.00,0.00,VWS V14.01,2013-02-07 01:39:00,
2013-02-06 18:44:00,36.1,23.2,30.03,WSW,241,3.0,4.0,59,0.00,,FEW140,0.00,0.00,VWS V14.01,2013-02-07 01:44:00,
2013-02-06 18:49:00,35.7,23.2,30.03,WSW,238,3.0,4.0,60,0.00,,FEW140,0.00,0.00,VWS V14.01,2013-02-07 01:49:00,
2013-02-06 18:54:00,35.6,23.1,30.04,SW,235,1.0,4.0,60,0.00,,FEW140,0.00,0.00,VWS V14.01,2013-02-07 01:54:00,
2013-02-06 18:59:00,35.4,23.3,30.05,SW,234,0.0,4.0,61,0.00,,FEW140,0.00,0.00,VWS V14.01,2013-02-07 01:59:00,
2013-02-06 19:00:00,31.4,22.4,30.07,SW,233,1.0,3.0,69,0.00,,OVC090,0.00,0.00,VWS V14.01,2013-02-07 02:00:00,
2013-02-06 19:04:00,35.0,22.9,30.05,SW,235,0.0,1.0,61,0.00,,CLR,0.00,0.00,VWS V14.01,2013-02-07 02:04:00,
2013-02-06 19:09:00,35.0,23.3,30.05,SW,235,1.0,1.0,62,0.00,,CLR,0.00,0.00,VWS V14.01,2013-02-07 02:09:00,
2013-02-06 19:14:00,34.7,23.4,30.06,SW,235,2.0,2.0,63,0.00,,CLR,0.00,0.00,VWS V14.01,2013-02-07 02:14:00,
2013-02-06 19:19:00,35.0,23.7,30.05,SW,235,1.0,3.0,63,0.00,,CLR,0.00,0.00,VWS V14.01,2013-02-07 02:19:00,
2013-02-06 19:24:00,35.0,23.7,30.06,SW,234,0.0,3.0,63,0.00,,CLR,0.00,0.00,VWS V14.01,2013-02-07 02:24:00,
2013-02-06 19:29:00,34.6,22.9,30.06,WSW,242,0.0,3.0,62,0.00,,CLR,0.00,0.00,VWS V14.01,2013-02-07 02:29:00,
2013-02-06 19:30:00,28.5,20.3,30.07,West,261,1.0,3.0,71,0.00,,OVC090,0.00,0.00,VWS V14.01,2013-02-07 02:30:00,
2013-02-06 19:34:00,33.4,22.5,30.06,WSW,242,0.0,1.0,64,0.00,,CLR,0.00,0.00,VWS V14.01,2013-02-07 02:34:00,
2013-02-06 19:39:00,32.8,22.3,30.07,WSW,241,1.0,1.0,65,0.00,,CLR,0.00,0.00,VWS V14.01,2013-02-07 02:39:00,
2013-02-06 19:44:00,32.4,22.3,30.07,WSW,241,1.0,1.0,66,0.00,,CLR,0.00,0.00,VWS V14.01,2013-02-07 02:44:00,
2013-02-06 19:49:00,32.0,22.3,30.07,WSW,242,2.0,2.0,67,0.00,,CLR,0.00,0.00,VWS V14.01,2013-02-07 02:49:00,
2013-02-06 19:54:00,31.3,22.0,30.07,WSW,242,2.0,2.0,68,0.00,,CLR,0.00,0.00,VWS V14.01,2013-02-07 02:54:00,
2013-02-06 19:59:00,31.4,22.4,30.07,SW,233,1.0,3.0,69,0.00,,CLR,0.00,0.00,VWS V14.01,2013-02-07 02:59:00,
2013-02-06 20:00:00,29.8,22.9,30.07,WSW,250,1.0,3.0,75,0.00,,OVC090,0.00,0.00,VWS V14.01,2013-02-07 03:00:00,
2013-02-06 20:04:00,31.6,22.6,30.04,SW,233,2.0,3.0,69,0.00,,CLR,0.00,0.00,VWS V14.01,2013-02-07 03:04:00,
2013-02-06 20:09:00,31.7,22.7,30.04,SW,233,2.0,3.0,69,0.00,,CLR,0.00,0.00,VWS V14.01,2013-02-07 03:09:00,
2013-02-06 20:14:00,31.2,21.9,30.05,West,261,2.0,3.0,68,0.00,,CLR,0.00,0.00,VWS V14.01,2013-02-07 03:14:00,
2013-02-06 20:19:00,30.2,21.3,30.05,West,261,0.0,3.0,69,0.00,,CLR,0.00,0.00,VWS V14.01,2013-02-07 03:19:00,
2013-02-06 20:24:00,29.6,21.0,30.05,West,261,0.0,3.0,70,0.00,,CLR,0.00,0.00,VWS V14.01,2013-02-07 03:24:00,
2013-02-06 20:29:00,28.8,20.6,30.06,West,260,0.0,3.0,71,0.00,,CLR,0.00,0.00,VWS V14.01,2013-02-07 03:29:00,
2013-02-06 20:30:00,28.3,20.8,30.05,West,277,1.0,3.0,73,0.00,,OVC090,0.00,0.00,VWS V14.01,2013-02-07 03:30:00,
2013-02-06 20:34:00,28.0,20.2,30.07,West,260,0.0,1.0,72,0.00,,CLR,0.00,0.00,VWS V14.01,2013-02-07 03:34:00,
2013-02-06 20:39:00,27.5,20.0,30.07,West,261,1.0,2.0,73,0.00,,CLR,0.00,0.00,VWS V14.01,2013-02-07 03:39:00,
2013-02-06 20:44:00,27.3,20.4,30.08,West,260,1.0,2.0,75,0.00,,CLR,0.00,0.00,VWS V14.01,2013-02-07 03:44:00,
2013-02-06 20:49:00,28.3,21.7,30.07,WSW,251,1.0,3.0,76,0.00,,CLR,0.00,0.00,VWS V14.01,2013-02-07 03:49:00,
2013-02-06 20:54:00,29.3,22.7,30.08,WSW,250,1.0,3.0,76,0.00,,CLR,0.00,0.00,VWS V14.01,2013-02-07 03:54:00,
2013-02-06 20:59:00,29.7,22.8,30.07,WSW,250,1.0,3.0,75,0.00,,CLR,0.00,0.00,VWS V14.01,2013-02-07 03:59:00,
2013-02-06 21:00:00,26.8,21.2,30.07,WSW,253,2.0,4.0,79,0.00,,OVC090,0.00,0.00,VWS V14.01,2013-02-07 04:00:00,
2013-02-06 21:04:00,30.1,22.8,30.05,WSW,250,1.0,2.0,74,0.00,,SCT120,0.00,0.00,VWS V14.01,2013-02-07 04:04:00,
2013-02-06 21:09:00,30.2,22.9,30.05,WSW,250,0.0,2.0,74,0.00,,SCT120,0.00,0.00,VWS V14.01,2013-02-07 04:09:00,
2013-02-06 21:14:00,30.1,22.5,30.04,WSW,250,0.0,2.0,73,0.00,,SCT120,0.00,0.00,VWS V14.01,2013-02-07 04:14:00,
2013-02-06 21:19:00,29.8,22.5,30.04,WSW,250,0.0,2.0,74,0.00,,SCT120,0.00,0.00,VWS V14.01,2013-02-07 04:19:00,
2013-02-06 21:24:00,29.5,22.2,30.04,WSW,250,0.0,2.0,74,0.00,,SCT120,0.00,0.00,VWS V14.01,2013-02-07 04:24:00,
2013-02-06 21:29:00,28.6,21.1,30.05,WSW,258,0.0,2.0,73,0.00,,SCT120,0.00,0.00,VWS V14.01,2013-02-07 04:29:00,
2013-02-06 21:30:00,27.8,22.4,30.05,SW,227,3.0,4.0,80,0.00,,OVC090,0.00,0.00,VWS V14.01,2013-02-07 04:30:00,
2013-02-06 21:34:00,27.4,20.5,30.05,West,267,2.0,3.0,75,0.00,,SCT120,0.00,0.00,VWS V14.01,2013-02-07 04:34:00,
2013-02-06 21:39:00,26.7,20.2,30.06,West,267,0.0,3.0,76,0.00,,SCT120,0.00,0.00,VWS V14.01,2013-02-07 04:39:00,
2013-02-06 21:44:00,26.7,20.8,30.06,West,269,2.0,3.0,78,0.00,,SCT120,0.00,0.00,VWS V14.01,2013-02-07 04:44:00,
2013-02-06 21:49:00,26.6,20.7,30.07,West,280,1.0,3.0,78,0.00,,SCT120,0.00,0.00,VWS V14.01,2013-02-07 04:49:00,
2013-02-06 21:54:00,26.7,21.1,30.07,WSW,254,2.0,4.0,79,0.00,,SCT120,0.00,0.00,VWS V14.01,2013-02-07 04:54:00,
2013-02-06 21:59:00,26.7,21.1,30.07,WSW,253,1.0,4.0,79,0.00,,SCT120,0.00,0.00,VWS V14.01,2013-02-07 04:59:00,
2013-02-06 22:00:00,26.7,21.4,30.07,WSW,253,1.0,4.0,80,0.00,,SCT120,0.00,0.00,VWS V14.01,2013-02-07 05:00:00,
2013-02-06 22:01:00,26.8,21.2,30.07,WSW,253,2.0,4.0,79,0.00,,SCT120,0.00,0.00,VWS V14.01,2013-02-07 05:01:00,
2013-02-06 22:02:00,26.8,21.5,30.05,WSW,254,2.0,2.0,80,0.00,,SCT120,0.00,0.00,VWS V14.01,2013-02-07 05:02:00,
2013-02-06 22:07:00,27.3,22.0,30.05,WSW,253,2.0,2.0,80,0.00,,CLR,0.00,0.00,VWS V14.01,2013-02-07 05:07:00,
2013-02-06 22:12:00,27.5,21.9,30.05,West,271,1.0,2.0,79,0.00,,CLR,0.00,0.00,VWS V14.01,2013-02-07 05:12:00,
2013-02-06 22:17:00,27.2,21.6,30.05,West,263,2.0,3.0,79,0.00,,CLR,0.00,0.00,VWS V14.01,2013-02-07 05:17:00,
2013-02-06 22:22:00,27.0,21.7,30.06,WSW,252,3.0,4.0,80,0.00,,CLR,0.00,0.00,VWS V14.01,2013-02-07 05:22:00,
2013-02-06 22:27:00,27.2,21.9,30.06,SW,236,2.0,4.0,80,0.00,,CLR,0.00,0.00,VWS V14.01,2013-02-07 05:27:00,
2013-02-06 22:30:00,28.6,23.2,30.06,SW,228,2.0,5.0,80,0.00,,OVC090,0.00,0.00,VWS V14.01,2013-02-07 05:30:00,
2013-02-06 22:32:00,27.9,22.5,30.05,SW,223,3.0,3.0,80,0.00,,CLR,0.00,0.00,VWS V14.01,2013-02-07 05:32:00,
2013-02-06 22:37:00,28.1,22.4,30.05,SW,225,3.0,4.0,79,0.00,,CLR,0.00,0.00,VWS V14.01,2013-02-07 05:37:00,
2013-02-06 22:42:00,28.2,22.5,30.05,SW,225,2.0,4.0,79,0.00,,CLR,0.00,0.00,VWS V14.01,2013-02-07 05:42:00,
2013-02-06 22:47:00,28.4,22.7,30.05,SW,226,2.0,4.0,79,0.00,,CLR,0.00,0.00,VWS V14.01,2013-02-07 05:47:00,
2013-02-06 22:52:00,28.5,22.8,30.05,SW,227,1.0,4.0,79,0.00,,CLR,0.00,0.00,VWS V14.01,2013-02-07 05:52:00,
2013-02-06 22:57:00,28.5,22.8,30.06,SW,229,0.0,4.0,79,0.00,,CLR,0.00,0.00,VWS V14.01,2013-02-07 05:57:00,
2013-02-06 23:00:00,27.3,22.2,30.06,WSW,242,3.0,4.0,81,0.00,,OVC090,0.00,0.00,VWS V14.01,2013-02-07 06:00:00,
2013-02-06 23:02:00,27.5,21.2,30.06,West,281,1.0,2.0,77,0.00,,CLR,0.00,0.00,VWS V14.01,2013-02-07 06:02:00,
2013-02-06 23:07:00,26.0,20.1,30.07,West,260,2.0,4.0,78,0.00,,CLR,0.00,0.00,VWS V14.01,2013-02-07 06:07:00,
2013-02-06 23:12:00,25.1,19.8,30.07,WSW,246,2.0,4.0,80,0.00,,CLR,0.00,0.00,VWS V14.01,2013-02-07 06:12:00,
2013-02-06 23:17:00,26.3,21.9,30.07,SW,229,3.0,5.0,83,0.00,,CLR,0.00,0.00,VWS V14.01,2013-02-07 06:17:00,
2013-02-06 23:22:00,27.9,23.1,30.06,SW,232,1.0,5.0,82,0.00,,CLR,0.00,0.00,VWS V14.01,2013-02-07 06:22:00,
2013-02-06 23:27:00,28.5,23.4,30.06,SW,228,2.0,5.0,81,0.00,,CLR,0.00,0.00,VWS V14.01,2013-02-07 06:27:00,
2013-02-06 23:30:00,29.3,23.3,30.07,WSW,237,2.0,4.0,78,0.00,,OVC090,0.00,0.00,VWS V14.01,2013-02-07 06:30:00,
2013-02-06 23:32:00,28.6,23.2,30.06,SW,227,1.0,2.0,80,0.00,,CLR,0.00,0.00,VWS V14.01,2013-02-07 06:32:00,
2013-02-06 23:37:00,28.7,23.3,30.06,SW,228,1.0,2.0,80,0.00,,CLR,0.00,0.00,VWS V14.01,2013-02-07 06:37:00,
2013-02-06 23:42:00,28.7,23.0,30.06,SW,228,1.0,2.0,79,0.00,,CLR,0.00,0.00,VWS V14.01,2013-02-07 06:42:00,
2013-02-06 23:47:00,28.6,22.9,30.06,WSW,252,0.0,2.0,79,0.00,,CLR,0.00,0.00,VWS V14.01,2013-02-07 06:47:00,
2013-02-06 23:52:00,27.5,21.5,30.07,WSW,252,2.0,3.0,78,0.00,,CLR,0.00,0.00,VWS V14.01,2013-02-07 06:52:00,
2013-02-06 23:57:00,27.0,21.7,30.07,WSW,252,2.0,3.0,80,0.00,,CLR,0.00,0.00,VWS V14.01,2013-02-07 06:57:00,